M I D A S
Marine Information and Data Acquisition System
Tripno 1503 of the Zeeleeuw from 2008-06-13 04:43:49 to 2008-06-13 13:35:45
Back to CruiseResearch ActivitiesStationsMapUnderway DataData graphs

EquipmentUnitsComments
TimeDGPSUTC
LatitudeDGPSDM.mWGS84
LongitudeDGPSDM.mWGS84
SpeedMeteo Stationm/sRelative wind speed
DirectionMeteo StationdegRelative wind direction
TemperatureMeteo Stationdeg CelciusAir temperature
PressureMeteo StationPaAtmospheric pressure
HumidityMeteo Station%Relative humidity
Missing or incorrect values are displayed as -999
Metereological data collected by the RV Zeeleeuw from 2008-06-13 04:12:45 to 2008-06-13 13:36:31
Time Latitude Longitude Speed Direction Temperature Pressure Humidity
2008-06-13 04:13 51°13.64 2°55.986 -999 -999 -999 -999 -999
2008-06-13 04:14 51°13.666 2°55.88 -999 -999 -999 -999 -999
2008-06-13 04:15 51°13.696 2°55.77 -999 -999 -999 -999 -999
2008-06-13 04:16 51°13.698 2°55.753 -999 -999 -999 -999 -999
2008-06-13 04:17 51°13.7 2°55.742 -999 -999 -999 -999 -999
2008-06-13 04:18 51°13.685 2°55.737 -999 -999 -999 -999 -999
2008-06-13 04:19 51°13.731 2°55.714 -999 -999 -999 -999 -999
2008-06-13 04:20 51°13.829 2°55.634 -999 -999 -999 -999 -999
2008-06-13 04:21 51°13.949 2°55.541 -999 -999 -999 -999 -999
2008-06-13 04:22 51°14.094 2°55.433 -999 -999 -999 -999 -999
2008-06-13 04:23 51°14.236 2°55.292 -999 -999 -999 -999 -999
2008-06-13 04:24 51°14.366 2°55.068 -999 -999 -999 -999 -999
2008-06-13 04:25 51°14.505 2°54.856 -999 -999 -999 -999 -999
2008-06-13 04:26 51°14.627 2°54.613 -999 -999 -999 -999 -999
2008-06-13 04:27 51°14.721 2°54.342 -999 -999 -999 -999 -999
2008-06-13 04:28 51°14.745 2°54.017 -999 -999 -999 -999 -999
2008-06-13 04:29 51°14.767 2°53.701 -999 -999 -999 -999 -999
2008-06-13 04:30 51°14.798 2°53.378 -999 -999 -999 -999 -999
2008-06-13 04:31 51°14.819 2°53.062 -999 -999 -999 -999 -999
2008-06-13 04:32 51°14.84 2°52.742 -999 -999 -999 -999 -999
2008-06-13 04:33 51°14.86 2°52.415 -999 -999 -999 -999 -999
2008-06-13 04:34 51°14.875 2°52.093 -999 -999 -999 -999 -999
2008-06-13 04:35 51°14.881 2°51.767 -999 -999 -999 -999 -999
2008-06-13 04:36 51°14.882 2°51.438 -999 -999 -999 -999 -999
2008-06-13 04:37 51°14.886 2°51.106 -999 -999 -999 -999 -999
2008-06-13 04:38 51°14.892 2°50.776 -999 -999 -999 -999 -999
2008-06-13 04:39 51°14.895 2°50.445 -999 -999 -999 -999 -999
2008-06-13 04:40 51°14.899 2°50.114 -999 -999 -999 -999 -999
2008-06-13 04:41 51°14.904 2°49.781 -999 -999 -999 -999 -999
2008-06-13 04:42 51°14.911 2°49.453 -999 -999 -999 -999 -999
2008-06-13 04:43 51°14.915 2°49.127 -999 -999 -999 -999 -999
2008-06-13 04:44 51°14.921 2°48.799 -999 -999 -999 -999 -999
2008-06-13 04:45 51°14.925 2°48.472 -999 -999 -999 -999 -999
2008-06-13 04:46 51°14.932 2°48.148 -999 -999 -999 -999 -999
2008-06-13 04:47 51°14.94 2°47.823 -999 -999 -999 -999 -999
2008-06-13 04:48 51°14.947 2°47.499 -999 -999 -999 -999 -999
2008-06-13 04:49 51°14.954 2°47.176 -999 -999 -999 -999 -999
2008-06-13 04:50 51°14.96 2°46.855 -999 -999 -999 -999 -999
2008-06-13 04:51 51°14.966 2°46.533 -999 -999 -999 -999 -999
2008-06-13 04:52 51°14.976 2°46.214 -999 -999 -999 -999 -999
2008-06-13 04:53 51°14.981 2°45.892 -999 -999 -999 -999 -999
2008-06-13 04:54 51°14.989 2°45.568 -999 -999 -999 -999 -999
2008-06-13 04:55 51°14.997 2°45.244 -999 -999 -999 -999 -999
2008-06-13 04:56 51°15.007 2°44.916 -999 -999 -999 -999 -999
2008-06-13 04:57 51°15.021 2°44.591 -999 -999 -999 -999 -999
2008-06-13 04:58 51°15.041 2°44.269 -999 -999 -999 -999 -999
2008-06-13 04:59 51°15.06 2°43.949 -999 -999 -999 -999 -999
2008-06-13 05:00 51°15.099 2°43.638 -999 -999 -999 -999 -999
2008-06-13 05:01 51°15.146 2°43.33 -999 -999 -999 -999 -999
2008-06-13 05:02 51°15.186 2°43.021 -999 -999 -999 -999 -999
2008-06-13 05:03 51°15.231 2°42.717 -999 -999 -999 -999 -999
2008-06-13 05:04 51°15.279 2°42.414 -999 -999 -999 -999 -999
2008-06-13 05:05 51°15.332 2°42.117 -999 -999 -999 -999 -999
2008-06-13 05:06 51°15.404 2°41.826 -999 -999 -999 -999 -999
2008-06-13 05:07 51°15.499 2°41.559 -999 -999 -999 -999 -999
2008-06-13 05:08 51°15.59 2°41.29 -999 -999 -999 -999 -999
2008-06-13 05:09 51°15.675 2°41.017 -999 -999 -999 -999 -999
2008-06-13 05:10 51°15.76 2°40.741 -999 -999 -999 -999 -999
2008-06-13 05:11 51°15.847 2°40.459 -999 -999 -999 -999 -999
2008-06-13 05:12 51°15.933 2°40.175 -999 -999 -999 -999 -999
2008-06-13 05:13 51°16.019 2°39.887 -999 -999 -999 -999 -999
2008-06-13 05:14 51°16.107 2°39.601 -999 -999 -999 -999 -999
2008-06-13 05:15 51°16.193 2°39.317 -999 -999 -999 -999 -999
2008-06-13 05:16 51°16.28 2°39.028 -999 -999 -999 -999 -999
2008-06-13 05:17 51°16.369 2°38.75 -999 -999 -999 -999 -999
2008-06-13 05:18 51°16.46 2°38.483 -999 -999 -999 -999 -999
2008-06-13 05:19 51°16.553 2°38.22 -999 -999 -999 -999 -999
2008-06-13 05:20 51°16.649 2°37.97 -999 -999 -999 -999 -999
2008-06-13 05:21 51°16.734 2°37.734 -999 -999 -999 -999 -999
2008-06-13 05:22 51°16.812 2°37.555 -999 -999 -999 -999 -999
2008-06-13 05:23 51°16.879 2°37.547 -999 -999 -999 -999 -999
2008-06-13 05:24 51°16.948 2°37.528 -999 -999 -999 -999 -999
2008-06-13 05:25 51°17 2°37.536 -999 -999 -999 -999 -999
2008-06-13 05:26 51°17.036 2°37.557 -999 -999 -999 -999 -999
2008-06-13 05:27 51°17.061 2°37.575 -999 -999 -999 -999 -999
2008-06-13 05:28 51°17.083 2°37.593 -999 -999 -999 -999 -999
2008-06-13 05:29 51°17.101 2°37.618 -999 -999 -999 -999 -999
2008-06-13 05:30 51°17.138 2°37.652 -999 -999 -999 -999 -999
2008-06-13 05:31 51°17.173 2°37.673 -999 -999 -999 -999 -999
2008-06-13 05:32 51°17.176 2°37.7 -999 -999 -999 -999 -999
2008-06-13 05:33 51°17.17 2°37.716 -999 -999 -999 -999 -999
2008-06-13 05:34 51°17.159 2°37.727 -999 -999 -999 -999 -999
2008-06-13 05:35 51°17.147 2°37.734 -999 -999 -999 -999 -999
2008-06-13 05:36 51°17.132 2°37.739 -999 -999 -999 -999 -999
2008-06-13 05:37 51°17.117 2°37.744 -999 -999 -999 -999 -999
2008-06-13 05:38 51°17.102 2°37.749 -999 -999 -999 -999 -999
2008-06-13 05:39 51°17.089 2°37.752 -999 -999 -999 -999 -999
2008-06-13 05:40 51°17.075 2°37.756 -999 -999 -999 -999 -999
2008-06-13 05:41 51°17.061 2°37.76 -999 -999 -999 -999 -999
2008-06-13 05:42 51°17.048 2°37.762 -999 -999 -999 -999 -999
2008-06-13 05:43 51°17.034 2°37.764 -999 -999 -999 -999 -999
2008-06-13 05:44 51°17.02 2°37.765 -999 -999 -999 -999 -999
2008-06-13 05:45 51°17.007 2°37.768 -999 -999 -999 -999 -999
2008-06-13 05:46 51°16.993 2°37.771 -999 -999 -999 -999 -999
2008-06-13 05:47 51°16.981 2°37.779 -999 -999 -999 -999 -999
2008-06-13 05:48 51°16.969 2°37.785 -999 -999 -999 -999 -999
2008-06-13 05:49 51°16.959 2°37.792 -999 -999 -999 -999 -999
2008-06-13 05:50 51°16.949 2°37.799 -999 -999 -999 -999 -999
2008-06-13 05:51 51°16.936 2°37.805 -999 -999 -999 -999 -999
2008-06-13 05:52 51°16.923 2°37.808 -999 -999 -999 -999 -999
2008-06-13 05:53 51°16.912 2°37.817 -999 -999 -999 -999 -999
2008-06-13 05:54 51°16.934 2°37.843 -999 -999 -999 -999 -999
2008-06-13 05:55 51°16.957 2°37.83 -999 -999 -999 -999 -999
2008-06-13 05:56 51°16.959 2°37.818 -999 -999 -999 -999 -999
2008-06-13 05:57 51°16.949 2°37.817 -999 -999 -999 -999 -999
2008-06-13 05:58 51°16.939 2°37.824 -999 -999 -999 -999 -999
2008-06-13 05:59 51°16.929 2°37.833 -999 -999 -999 -999 -999
2008-06-13 06:00 51°16.919 2°37.841 -999 -999 -999 -999 -999
2008-06-13 06:01 51°16.906 2°37.849 -999 -999 -999 -999 -999
2008-06-13 06:02 51°16.894 2°37.858 -999 -999 -999 -999 -999
2008-06-13 06:03 51°16.872 2°37.834 -999 -999 -999 -999 -999
2008-06-13 06:04 51°16.867 2°37.77 -999 -999 -999 -999 -999
2008-06-13 06:05 51°16.883 2°37.689 -999 -999 -999 -999 -999
2008-06-13 06:06 51°16.895 2°37.639 -999 -999 -999 -999 -999
2008-06-13 06:07 51°16.898 2°37.62 -999 -999 -999 -999 -999
2008-06-13 06:08 51°16.894 2°37.617 -999 -999 -999 -999 -999
2008-06-13 06:09 51°16.886 2°37.624 -999 -999 -999 -999 -999
2008-06-13 06:10 51°16.877 2°37.637 -999 -999 -999 -999 -999
2008-06-13 06:11 51°16.87 2°37.652 -999 -999 -999 -999 -999
2008-06-13 06:12 51°16.863 2°37.666 -999 -999 -999 -999 -999
2008-06-13 06:13 51°16.855 2°37.676 -999 -999 -999 -999 -999
2008-06-13 06:14 51°16.845 2°37.683 -999 -999 -999 -999 -999
2008-06-13 06:15 51°16.835 2°37.689 -999 -999 -999 -999 -999
2008-06-13 06:16 51°16.827 2°37.694 -999 -999 -999 -999 -999
2008-06-13 06:17 51°16.819 2°37.7 -999 -999 -999 -999 -999
2008-06-13 06:18 51°16.811 2°37.708 -999 -999 -999 -999 -999
2008-06-13 06:19 51°16.802 2°37.719 -999 -999 -999 -999 -999
2008-06-13 06:20 51°16.792 2°37.728 -999 -999 -999 -999 -999
2008-06-13 06:21 51°16.783 2°37.728 -999 -999 -999 -999 -999
2008-06-13 06:22 51°16.786 2°37.682 -999 -999 -999 -999 -999
2008-06-13 06:23 51°16.818 2°37.658 -999 -999 -999 -999 -999
2008-06-13 06:24 51°16.863 2°37.682 -999 -999 -999 -999 -999
2008-06-13 06:25 51°16.91 2°37.698 -999 -999 -999 -999 -999
2008-06-13 06:26 51°16.957 2°37.688 -999 -999 -999 -999 -999
2008-06-13 06:27 51°16.992 2°37.69 -999 -999 -999 -999 -999
2008-06-13 06:28 51°17.006 2°37.708 -999 -999 -999 -999 -999
2008-06-13 06:29 51°17.01 2°37.734 -999 -999 -999 -999 -999
2008-06-13 06:30 51°17.006 2°37.759 -999 -999 -999 -999 -999
2008-06-13 06:31 51°17.002 2°37.78 -999 -999 -999 -999 -999
2008-06-13 06:32 51°16.998 2°37.799 -999 -999 -999 -999 -999
2008-06-13 06:33 51°16.993 2°37.814 -999 -999 -999 -999 -999
2008-06-13 06:34 51°16.988 2°37.833 -999 -999 -999 -999 -999
2008-06-13 06:35 51°16.995 2°37.897 -999 -999 -999 -999 -999
2008-06-13 06:36 51°17.017 2°37.993 -999 -999 -999 -999 -999
2008-06-13 06:37 51°17.045 2°38.085 -999 -999 -999 -999 -999
2008-06-13 06:38 51°17.061 2°38.142 -999 -999 -999 -999 -999
2008-06-13 06:39 51°17.069 2°38.182 -999 -999 -999 -999 -999
2008-06-13 06:40 51°17.072 2°38.214 -999 -999 -999 -999 -999
2008-06-13 06:41 51°17.071 2°38.244 -999 -999 -999 -999 -999
2008-06-13 06:42 51°17.067 2°38.269 -999 -999 -999 -999 -999
2008-06-13 06:43 51°17.063 2°38.294 -999 -999 -999 -999 -999
2008-06-13 06:44 51°17.058 2°38.319 -999 -999 -999 -999 -999
2008-06-13 06:45 51°17.057 2°38.361 -999 -999 -999 -999 -999
2008-06-13 06:46 51°17.042 2°38.436 -999 -999 -999 -999 -999
2008-06-13 06:47 51°16.998 2°38.46 -999 -999 -999 -999 -999
2008-06-13 06:48 51°16.979 2°38.393 -999 -999 -999 -999 -999
2008-06-13 06:49 51°17.021 2°38.221 -999 -999 -999 -999 -999
2008-06-13 06:50 51°17.081 2°37.942 -999 -999 -999 -999 -999
2008-06-13 06:51 51°17.148 2°37.659 13.8 341 12 -999 55
2008-06-13 06:52 51°17.212 2°37.385 13.1 342 12.1 101670 72
2008-06-13 06:53 51°17.263 2°37.096 14.2 347 11.9 101660 69
2008-06-13 06:54 51°17.304 2°36.83 10.6 348 11.9 101670 70
2008-06-13 06:55 51°17.371 2°36.696 9.6 330 12 101690 72
2008-06-13 06:56 51°17.428 2°36.573 8.6 352 11.9 101670 68
2008-06-13 06:57 51°17.439 2°36.493 9 355 11.9 101690 69
2008-06-13 06:58 51°17.44 2°36.467 7.1 3 11.9 101670 69
2008-06-13 06:59 51°17.434 2°36.462 6.6 6 11.9 101680 68
2008-06-13 07:00 51°17.429 2°36.45 7.2 4 11.9 101670 71
2008-06-13 07:01 51°17.429 2°36.434 6.6 352 11.9 101680 69
2008-06-13 07:02 51°17.429 2°36.435 7.5 360 11.8 101680 66
2008-06-13 07:03 51°17.426 2°36.451 6.2 -999 11.9 101680 69
2008-06-13 07:04 51°17.419 2°36.444 7.2 21 12.1 101680 72
2008-06-13 07:05 51°17.397 2°36.421 8.6 10 11.9 101680 68
2008-06-13 07:06 51°17.391 2°36.396 6.6 358 11.9 101680 65
2008-06-13 07:07 51°17.396 2°36.366 6.1 353 12 101680 68
2008-06-13 07:08 51°17.399 2°36.37 5.4 354 11.9 101680 67
2008-06-13 07:09 51°17.401 2°36.378 7.6 358 12 101690 69
2008-06-13 07:10 51°17.401 2°36.387 5.1 2 11.9 101690 65
2008-06-13 07:11 51°17.399 2°36.404 7 6 11.9 101700 65
2008-06-13 07:12 51°17.395 2°36.42 7.7 12 12.1 101680 69
2008-06-13 07:13 51°17.398 2°36.401 8.2 348 12 101680 65
2008-06-13 07:14 51°17.409 2°36.354 7.1 2 11.9 101670 64
2008-06-13 07:15 51°17.41 2°36.336 6.9 358 12 101680 64
2008-06-13 07:16 51°17.41 2°36.345 6.3 -999 12 101690 65
2008-06-13 07:17 51°17.408 2°36.363 4.7 358 12 101690 67
2008-06-13 07:18 51°17.405 2°36.388 6.4 7 12 101690 67
2008-06-13 07:19 51°17.402 2°36.416 6.3 8 12 101690 65
2008-06-13 07:20 51°17.397 2°36.431 7.1 9 12.1 101690 65
2008-06-13 07:21 51°17.398 2°36.387 6.7 343 12.1 101680 64
2008-06-13 07:22 51°17.407 2°36.375 7 344 12.1 101690 66
2008-06-13 07:23 51°17.41 2°36.381 6.8 358 12.1 101690 66
2008-06-13 07:24 51°17.41 2°36.396 6.5 360 12.1 101680 66
2008-06-13 07:25 51°17.409 2°36.415 4.9 357 12 101690 66
2008-06-13 07:26 51°17.406 2°36.442 6.3 3 12.1 101690 67
2008-06-13 07:27 51°17.4 2°36.464 6.8 17 12.1 101690 62
2008-06-13 07:28 51°17.361 2°36.444 5.3 18 12.1 101700 64
2008-06-13 07:29 51°17.264 2°36.37 5.8 8 12.1 101690 65
2008-06-13 07:30 51°17.125 2°36.222 8.4 355 12.2 101690 66
2008-06-13 07:31 51°16.971 2°36.056 7.2 353 12.1 101680 67
2008-06-13 07:32 51°16.822 2°35.876 8.3 357 12.1 101680 68
2008-06-13 07:33 51°16.676 2°35.692 9 358 12.2 101670 68
2008-06-13 07:34 51°16.53 2°35.5 8.9 355 12.1 101680 67
2008-06-13 07:35 51°16.386 2°35.313 7.3 358 12.1 101680 67
2008-06-13 07:36 51°16.241 2°35.129 9.2 355 12.1 101690 70
2008-06-13 07:37 51°16.101 2°34.941 7.9 358 12.1 101670 72
2008-06-13 07:38 51°15.987 2°34.773 6.4 2 12 101690 70
2008-06-13 07:39 51°16.01 2°34.666 8.7 329 12 101690 71
2008-06-13 07:40 51°16.097 2°34.708 7.7 20 12.1 101690 72
2008-06-13 07:41 51°16.156 2°34.879 8.7 23 12.3 101710 73
2008-06-13 07:42 51°16.291 2°34.893 10.7 320 12.3 101700 68
2008-06-13 07:43 51°16.475 2°34.857 11.6 326 12.3 101700 69
2008-06-13 07:44 51°16.66 2°34.764 12.1 327 12.2 101690 67
2008-06-13 07:45 51°16.845 2°34.673 10.5 330 12.3 101710 68
2008-06-13 07:46 51°17.028 2°34.587 11.8 325 12.3 101700 68
2008-06-13 07:47 51°17.212 2°34.506 12.2 326 12.4 101670 70
2008-06-13 07:48 51°17.397 2°34.431 12.2 328 12.3 101700 68
2008-06-13 07:49 51°17.589 2°34.338 14.6 325 12.4 101690 69
2008-06-13 07:50 51°17.783 2°34.235 13.3 326 12.3 101690 69
2008-06-13 07:51 51°17.971 2°34.116 11.8 326 12.3 101690 68
2008-06-13 07:52 51°18.15 2°33.989 13.8 331 12.3 101680 69
2008-06-13 07:53 51°18.333 2°33.86 12.6 328 12.3 101690 67
2008-06-13 07:54 51°18.514 2°33.732 12.6 329 12.3 101680 67
2008-06-13 07:55 51°18.693 2°33.605 13 327 12.3 101680 68
2008-06-13 07:56 51°18.874 2°33.475 11.4 327 12.3 101700 67
2008-06-13 07:57 51°19.056 2°33.34 13.1 328 12.3 101680 67
2008-06-13 07:58 51°19.24 2°33.207 12.7 326 12.3 101700 67
2008-06-13 07:59 51°19.421 2°33.075 12.3 325 12.3 101680 67
2008-06-13 08:00 51°19.604 2°32.935 11.6 330 12.3 101700 66
2008-06-13 08:01 51°19.724 2°32.694 11.6 335 12.3 101680 65
2008-06-13 08:02 51°19.816 2°32.42 11.7 336 12.3 101690 65
2008-06-13 08:03 51°19.912 2°32.149 13.2 338 12.4 101690 65
2008-06-13 08:04 51°20.017 2°31.887 12.4 340 12.4 101700 65
2008-06-13 08:05 51°20.127 2°31.635 11.2 339 12.3 101690 64
2008-06-13 08:06 51°20.233 2°31.381 13.7 331 12.4 101680 67
2008-06-13 08:07 51°20.348 2°31.145 12.8 334 12.4 101690 67
2008-06-13 08:08 51°20.467 2°30.915 12.2 332 12.4 101710 66
2008-06-13 08:09 51°20.615 2°30.736 13.2 333 12.4 101690 66
2008-06-13 08:10 51°20.774 2°30.574 13 329 12.3 101700 66
2008-06-13 08:11 51°20.944 2°30.413 11.8 324 12.4 101690 67
2008-06-13 08:12 51°21.136 2°30.307 12.7 325 12.4 101700 68
2008-06-13 08:13 51°21.338 2°30.251 11.8 322 12.4 101680 67
2008-06-13 08:14 51°21.534 2°30.197 11.4 323 12.4 101700 65
2008-06-13 08:15 51°21.734 2°30.129 10.9 323 12.4 101700 65
2008-06-13 08:16 51°21.934 2°30.06 11.3 320 12.4 101690 65
2008-06-13 08:17 51°22.134 2°30.004 12.4 322 12.4 101700 66
2008-06-13 08:18 51°22.332 2°29.96 10 321 12.4 101690 66
2008-06-13 08:19 51°22.533 2°29.917 12.7 320 12.4 101700 65
2008-06-13 08:20 51°22.732 2°29.872 12.5 322 12.3 101710 65
2008-06-13 08:21 51°22.936 2°29.83 13.3 321 12.4 101710 66
2008-06-13 08:22 51°23.143 2°29.795 10.7 323 12.4 101700 66
2008-06-13 08:23 51°23.344 2°29.748 10.9 321 12.4 101710 66
2008-06-13 08:24 51°23.499 2°29.72 8.2 22 12.3 101710 64
2008-06-13 08:25 51°23.578 2°29.712 6 22 12.3 101720 64
2008-06-13 08:26 51°23.629 2°29.736 7.2 25 12.4 101710 66
2008-06-13 08:27 51°23.679 2°29.719 7.1 331 12.6 101720 70
2008-06-13 08:28 51°23.704 2°29.714 6.1 343 12.5 101710 69
2008-06-13 08:29 51°23.714 2°29.735 6 353 12.4 101720 70
2008-06-13 08:30 51°23.721 2°29.758 5.1 3 12.2 101730 67
2008-06-13 08:31 51°23.727 2°29.782 3.7 358 12.2 101730 69
2008-06-13 08:32 51°23.73 2°29.802 5.5 3 12.1 101720 69
2008-06-13 08:33 51°23.733 2°29.816 4.9 5 12.1 101710 71
2008-06-13 08:34 51°23.734 2°29.829 6.1 359 12.1 101720 70
2008-06-13 08:35 51°23.738 2°29.838 5.5 356 12.1 101720 70
2008-06-13 08:36 51°23.743 2°29.846 4.6 346 12 101720 70
2008-06-13 08:37 51°23.749 2°29.838 6.5 355 12.1 101710 71
2008-06-13 08:38 51°23.738 2°29.804 6.8 357 12.1 101720 72
2008-06-13 08:39 51°23.732 2°29.781 5.5 353 11.9 101710 69
2008-06-13 08:40 51°23.732 2°29.778 4.9 359 11.9 101710 69
2008-06-13 08:41 51°23.733 2°29.786 4.5 6 12 101730 71
2008-06-13 08:42 51°23.735 2°29.799 4 8 12 101720 71
2008-06-13 08:43 51°23.74 2°29.814 4.1 12 12 101720 69
2008-06-13 08:44 51°23.744 2°29.834 5 12 12 101710 68
2008-06-13 08:45 51°23.749 2°29.854 4.2 3 12.1 101710 69
2008-06-13 08:46 51°23.753 2°29.87 5.4 351 12.1 101720 68
2008-06-13 08:47 51°23.744 2°29.824 3.5 9 12 101700 67
2008-06-13 08:48 51°23.724 2°29.796 6.6 360 12.1 101720 68
2008-06-13 08:49 51°23.725 2°29.777 4.9 350 12 101710 66
2008-06-13 08:50 51°23.73 2°29.78 6.3 356 12 101720 65
2008-06-13 08:51 51°23.735 2°29.79 4.6 359 11.9 101720 65
2008-06-13 08:52 51°23.742 2°29.807 5.5 358 12 101720 66
2008-06-13 08:53 51°23.747 2°29.827 4.8 354 12 101710 66
2008-06-13 08:54 51°23.754 2°29.848 4.4 353 12 101720 65
2008-06-13 08:55 51°23.76 2°29.87 4.5 351 12 101720 66
2008-06-13 08:56 51°23.77 2°29.852 6.4 339 12 101720 66
2008-06-13 08:57 51°23.83 2°29.745 9.2 328 12.1 101710 65
2008-06-13 08:58 51°23.942 2°29.537 11.3 328 12.1 101700 64
2008-06-13 08:59 51°24.079 2°29.324 11.5 327 12.2 101680 63
2008-06-13 09:00 51°24.247 2°29.151 9.8 325 12.3 101700 64
2008-06-13 09:01 51°24.415 2°28.984 9.8 327 12.3 101700 63
2008-06-13 09:02 51°24.52 2°28.894 7.3 322 12.4 101710 63
2008-06-13 09:03 51°24.574 2°28.809 8.3 329 12.4 101700 62
2008-06-13 09:04 51°24.623 2°28.727 6.8 328 12.5 101720 64
2008-06-13 09:05 51°24.688 2°28.67 7.2 324 12.5 101720 63
2008-06-13 09:06 51°24.732 2°28.648 6.5 321 12.5 101720 62
2008-06-13 09:07 51°24.764 2°28.644 5 320 12.5 101710 63
2008-06-13 09:08 51°24.79 2°28.648 5.7 324 12.6 101720 65
2008-06-13 09:09 51°24.813 2°28.656 5.9 319 12.7 101730 64
2008-06-13 09:10 51°24.831 2°28.667 6 326 12.6 101730 61
2008-06-13 09:11 51°24.846 2°28.673 6.3 323 12.6 101730 62
2008-06-13 09:12 51°24.865 2°28.683 5 325 12.5 101730 60
2008-06-13 09:13 51°24.888 2°28.688 6.8 328 12.6 101720 61
2008-06-13 09:14 51°24.948 2°28.65 6.3 332 12.6 101710 60
2008-06-13 09:15 51°25.024 2°28.58 8.3 330 12.6 101710 60
2008-06-13 09:16 51°25.099 2°28.504 7 334 12.5 101720 59
2008-06-13 09:17 51°25.176 2°28.437 6.7 328 12.5 101710 58
2008-06-13 09:18 51°25.261 2°28.428 5 26 12.5 101720 58
2008-06-13 09:19 51°25.275 2°28.573 2.2 18 12.6 101720 58
2008-06-13 09:20 51°25.167 2°28.597 4.1 4 12.6 101710 57
2008-06-13 09:21 51°25.037 2°28.72 2.6 2 12.6 101720 59
2008-06-13 09:22 51°24.891 2°28.807 5.1 7 12.6 101710 61
2008-06-13 09:23 51°24.813 2°28.805 5.1 4 12.5 101740 59
2008-06-13 09:24 51°24.763 2°28.764 5.5 1 12.4 101730 60
2008-06-13 09:25 51°24.748 2°28.713 5.3 343 12.4 101730 60
2008-06-13 09:26 51°24.757 2°28.694 4.2 346 12.3 101720 58
2008-06-13 09:27 51°24.766 2°28.706 3.7 334 12.4 101730 59
2008-06-13 09:28 51°24.771 2°28.716 4 338 12.4 101720 59
2008-06-13 09:29 51°24.779 2°28.738 4 335 12.4 101720 59
2008-06-13 09:30 51°24.783 2°28.762 4 343 12.5 101720 58
2008-06-13 09:31 51°24.789 2°28.779 5.2 347 12.5 101720 58
2008-06-13 09:32 51°24.775 2°28.746 5 2 12.5 101730 60
2008-06-13 09:33 51°24.765 2°28.713 4.7 345 12.4 101720 58
2008-06-13 09:34 51°24.772 2°28.706 4.3 331 12.5 101710 59
2008-06-13 09:35 51°24.779 2°28.715 4.3 336 12.5 101730 58
2008-06-13 09:36 51°24.786 2°28.733 3.3 326 12.6 101720 57
2008-06-13 09:37 51°24.791 2°28.764 4.2 340 12.6 101720 57
2008-06-13 09:38 51°24.794 2°28.781 4.3 360 12.7 101710 57
2008-06-13 09:39 51°24.777 2°28.747 4.1 1 12.6 101710 58
2008-06-13 09:40 51°24.763 2°28.709 4.5 354 12.6 101720 59
2008-06-13 09:41 51°24.764 2°28.69 4.9 343 12.5 101720 58
2008-06-13 09:42 51°24.772 2°28.697 3.6 338 12.5 101720 57
2008-06-13 09:43 51°24.777 2°28.712 3.7 345 12.6 101720 57
2008-06-13 09:44 51°24.782 2°28.737 3.4 337 12.7 101740 57
2008-06-13 09:45 51°24.786 2°28.764 3.7 344 12.6 101720 56
2008-06-13 09:46 51°24.789 2°28.793 4.5 339 12.6 101720 57
2008-06-13 09:47 51°24.786 2°28.785 6.2 347 12.6 101720 58
2008-06-13 09:48 51°24.756 2°28.735 5 351 12.5 101720 59
2008-06-13 09:49 51°24.749 2°28.694 4.4 338 12.5 101730 58
2008-06-13 09:50 51°24.756 2°28.689 4.1 341 12.5 101740 56
2008-06-13 09:51 51°24.764 2°28.698 4.3 329 12.6 101730 56
2008-06-13 09:52 51°24.771 2°28.714 4.5 327 12.7 101720 56
2008-06-13 09:53 51°24.776 2°28.737 3.6 323 12.7 101720 56
2008-06-13 09:54 51°24.779 2°28.761 4.6 318 12.8 101740 56
2008-06-13 09:55 51°24.782 2°28.789 4.2 323 12.8 101740 55
2008-06-13 09:56 51°24.779 2°28.765 6.4 358 12.8 101740 54
2008-06-13 09:57 51°24.686 2°28.801 3 4 12.7 101740 57
2008-06-13 09:58 51°24.557 2°28.963 2.4 -999 12.7 101740 58
2008-06-13 09:59 51°24.428 2°29.138 4.4 358 12.8 101720 58
2008-06-13 10:00 51°24.262 2°29.312 4 355 12.7 101720 58
2008-06-13 10:01 51°24.095 2°29.488 4.4 347 12.7 101720 58
2008-06-13 10:02 51°23.935 2°29.661 4.3 349 12.6 101730 58
2008-06-13 10:03 51°23.766 2°29.846 4.7 353 12.7 101740 58
2008-06-13 10:04 51°23.592 2°29.99 6.6 350 12.6 101730 56
2008-06-13 10:05 51°23.402 2°30.014 7 351 12.6 101720 58
2008-06-13 10:06 51°23.21 2°30.043 7.2 347 12.6 101720 58
2008-06-13 10:07 51°23.017 2°30.072 5.7 351 12.6 101730 58
2008-06-13 10:08 51°22.825 2°30.095 7.1 354 12.6 101740 59
2008-06-13 10:09 51°22.632 2°30.122 7.7 345 12.5 101720 58
2008-06-13 10:10 51°22.44 2°30.153 6.2 348 12.5 101710 58
2008-06-13 10:11 51°22.251 2°30.18 5.3 347 12.6 101720 59
2008-06-13 10:12 51°22.057 2°30.204 5.4 345 12.6 101710 58
2008-06-13 10:13 51°21.865 2°30.234 7.6 351 12.6 101730 60
2008-06-13 10:14 51°21.672 2°30.257 6.7 352 12.6 101720 56
2008-06-13 10:15 51°21.483 2°30.277 5.9 346 12.6 101720 58
2008-06-13 10:16 51°21.293 2°30.309 6.3 349 12.7 101720 59
2008-06-13 10:17 51°21.128 2°30.482 4.3 345 12.6 101720 57
2008-06-13 10:18 51°20.981 2°30.698 4.6 343 12.7 101730 56
2008-06-13 10:19 51°20.833 2°30.916 4.3 349 12.7 101730 55
2008-06-13 10:20 51°20.683 2°31.147 3.2 342 12.8 101720 55
2008-06-13 10:21 51°20.533 2°31.374 3.4 340 12.8 101730 55
2008-06-13 10:22 51°20.382 2°31.599 4 336 12.9 101720 56
2008-06-13 10:23 51°20.231 2°31.825 4.7 334 12.9 101730 56
2008-06-13 10:24 51°20.085 2°32.057 1.9 339 12.9 101720 56
2008-06-13 10:25 51°19.956 2°32.309 4.5 343 12.9 101730 57
2008-06-13 10:26 51°19.828 2°32.565 4.5 345 12.9 101730 56
2008-06-13 10:27 51°19.702 2°32.825 3.8 335 12.9 101740 55
2008-06-13 10:28 51°19.576 2°33.081 3.7 338 13 101720 56
2008-06-13 10:29 51°19.449 2°33.339 4.5 339 13 101740 55
2008-06-13 10:30 51°19.324 2°33.592 4 341 13 101730 56
2008-06-13 10:31 51°19.193 2°33.854 3.9 338 13 101730 56
2008-06-13 10:32 51°19.066 2°34.112 3.5 345 13 101720 55
2008-06-13 10:33 51°18.939 2°34.363 4.1 339 13 101740 56
2008-06-13 10:34 51°18.804 2°34.627 3.8 331 13.1 101720 56
2008-06-13 10:35 51°18.672 2°34.883 3.9 341 13.1 101730 56
2008-06-13 10:36 51°18.539 2°35.145 5 356 13.1 101730 57
2008-06-13 10:37 51°18.406 2°35.407 4.7 350 13 101720 57
2008-06-13 10:38 51°18.273 2°35.667 3.7 349 13 101710 55
2008-06-13 10:39 51°18.138 2°35.918 3.1 350 12.9 101730 56
2008-06-13 10:40 51°17.985 2°36.131 5.1 350 13 101730 57
2008-06-13 10:41 51°17.81 2°36.279 7.9 354 13 101720 57
2008-06-13 10:42 51°17.613 2°36.312 7.7 348 12.9 101720 56
2008-06-13 10:43 51°17.456 2°36.338 4.1 5 12.8 101730 57
2008-06-13 10:44 51°17.405 2°36.393 3.7 32 12.9 101730 57
2008-06-13 10:45 51°17.388 2°36.423 3.1 22 12.9 101730 57
2008-06-13 10:46 51°17.384 2°36.438 3 15 13 101740 57
2008-06-13 10:47 51°17.374 2°36.429 4.1 341 13 101730 58
2008-06-13 10:48 51°17.385 2°36.383 3.5 325 13 101720 57
2008-06-13 10:49 51°17.405 2°36.366 3 28 13.1 101730 57
2008-06-13 10:50 51°17.42 2°36.374 3.6 21 13.3 101730 56
2008-06-13 10:51 51°17.428 2°36.389 3.3 252 13.5 101730 56
2008-06-13 10:52 51°17.436 2°36.407 3.3 254 13.7 101720 57
2008-06-13 10:53 51°17.449 2°36.422 3.4 246 13.8 101720 55
2008-06-13 10:54 51°17.475 2°36.406 3.4 326 13.8 101720 54
2008-06-13 10:55 51°17.474 2°36.361 4 341 13.6 101720 54
2008-06-13 10:56 51°17.436 2°36.34 5.2 351 13.4 101720 54
2008-06-13 10:57 51°17.402 2°36.336 3.9 11 13.2 101720 56
2008-06-13 10:58 51°17.394 2°36.35 3.2 12 13.1 101730 56
2008-06-13 10:59 51°17.397 2°36.367 3.1 28 13.1 101720 56
2008-06-13 11:00 51°17.405 2°36.383 2.7 31 13.1 101720 55
2008-06-13 11:01 51°17.415 2°36.398 2.8 32 13.2 101730 57
2008-06-13 11:02 51°17.424 2°36.414 3.2 29 13.4 101720 58
2008-06-13 11:03 51°17.432 2°36.431 2.8 37 13.4 101710 58
2008-06-13 11:04 51°17.434 2°36.457 3.3 29 13.5 101730 58
2008-06-13 11:05 51°17.419 2°36.473 4.3 355 13.6 101720 60
2008-06-13 11:06 51°17.399 2°36.448 4.2 340 13.4 101710 54
2008-06-13 11:07 51°17.382 2°36.394 4.5 335 13.3 101720 56
2008-06-13 11:08 51°17.39 2°36.358 4.5 321 13.4 101720 56
2008-06-13 11:09 51°17.399 2°36.365 3 21 13.4 101720 54
2008-06-13 11:10 51°17.406 2°36.379 2.5 317 13.5 101720 54
2008-06-13 11:11 51°17.413 2°36.397 2.6 27 13.7 101720 55
2008-06-13 11:12 51°17.419 2°36.414 3.1 29 13.8 101710 54
2008-06-13 11:13 51°17.425 2°36.434 3.4 26 13.8 101720 54
2008-06-13 11:14 51°17.43 2°36.452 4.7 245 13.9 101710 54
2008-06-13 11:15 51°17.462 2°36.448 3.5 252 14 101710 54
2008-06-13 11:16 51°17.519 2°36.554 0.9 7 14 101720 54
2008-06-13 11:17 51°17.466 2°36.775 5.1 347 14 101710 54
2008-06-13 11:18 51°17.382 2°37.069 5 344 13.7 101710 54
2008-06-13 11:19 51°17.299 2°37.326 2.7 10 13.5 101700 54
2008-06-13 11:20 51°17.276 2°37.467 2.3 30 13.5 101710 55
2008-06-13 11:21 51°17.242 2°37.549 3.8 14 13.5 101710 55
2008-06-13 11:22 51°17.195 2°37.618 3.7 15 13.4 101710 54
2008-06-13 11:23 51°17.16 2°37.7 2.9 16 13.5 101710 56
2008-06-13 11:24 51°17.129 2°37.752 3.2 8 13.6 101720 54
2008-06-13 11:25 51°17.107 2°37.768 3.1 7 13.6 101710 56
2008-06-13 11:26 51°17.094 2°37.781 3.3 11 13.5 101710 55
2008-06-13 11:27 51°17.084 2°37.794 3.1 7 13.5 101710 58
2008-06-13 11:28 51°17.076 2°37.804 3.7 9 13.5 101710 58
2008-06-13 11:29 51°17.07 2°37.812 4.2 16 13.5 101700 57
2008-06-13 11:30 51°17.064 2°37.819 3.6 14 13.4 101710 55
2008-06-13 11:31 51°17.06 2°37.823 3.2 9 13.3 101710 55
2008-06-13 11:32 51°17.057 2°37.828 3.5 11 13.3 101710 57
2008-06-13 11:33 51°17.055 2°37.831 3 359 13.3 101710 55
2008-06-13 11:34 51°17.054 2°37.835 3.4 359 13.2 101710 55
2008-06-13 11:35 51°17.055 2°37.84 3.1 355 13.1 101710 55
2008-06-13 11:36 51°17.054 2°37.843 3.5 350 13.2 101710 58
2008-06-13 11:37 51°17.055 2°37.846 2.6 348 13.1 101710 56
2008-06-13 11:38 51°17.056 2°37.85 4.1 349 13.2 101700 59
2008-06-13 11:39 51°17.057 2°37.854 2.5 344 13.1 101700 51
2008-06-13 11:40 51°17.058 2°37.858 3.2 350 13.2 101700 54
2008-06-13 11:41 51°17.058 2°37.861 4 340 13.2 101710 56
2008-06-13 11:42 51°17.059 2°37.865 3.4 340 13.3 101700 55
2008-06-13 11:43 51°17.06 2°37.869 3.7 336 13.3 101710 55
2008-06-13 11:44 51°17.061 2°37.875 4.5 322 13.4 101700 57
2008-06-13 11:45 51°17.063 2°37.881 3.6 328 13.4 101700 54
2008-06-13 11:46 51°17.065 2°37.889 4.4 331 13.4 101700 54
2008-06-13 11:47 51°17.067 2°37.897 3.1 340 13.4 101700 55
2008-06-13 11:48 51°17.068 2°37.905 3.7 349 13.4 101700 57
2008-06-13 11:49 51°17.069 2°37.911 3.6 348 13.4 101700 58
2008-06-13 11:50 51°17.07 2°37.917 3.7 357 13.3 101690 59
2008-06-13 11:51 51°17.07 2°37.923 5 356 13.3 101700 58
2008-06-13 11:52 51°17.069 2°37.928 3.3 6 13.2 101700 56
2008-06-13 11:53 51°17.067 2°37.934 3.8 355 13.3 101690 60
2008-06-13 11:54 51°17.067 2°37.938 2.6 1 13.1 101700 56
2008-06-13 11:55 51°17.065 2°37.941 3.9 359 13.1 101700 57
2008-06-13 11:56 51°17.064 2°37.943 5.1 352 13.2 101700 60
2008-06-13 11:57 51°17.062 2°37.945 3.9 355 13.1 101700 56
2008-06-13 11:58 51°17.061 2°37.945 4.7 353 13.1 101700 55
2008-06-13 11:59 51°17.06 2°37.947 4.2 355 13.2 101700 60
2008-06-13 12:00 51°17.059 2°37.949 4 348 13.2 101700 59
2008-06-13 12:01 51°17.058 2°37.949 4.3 353 13.2 101690 57
2008-06-13 12:02 51°17.056 2°37.95 4.5 359 13.1 101700 58
2008-06-13 12:03 51°17.055 2°37.951 3.6 351 13.2 101700 59
2008-06-13 12:04 51°17.053 2°37.952 3.3 353 13.2 101690 57
2008-06-13 12:05 51°17.051 2°37.95 3.2 344 13.1 101700 56
2008-06-13 12:06 51°17.049 2°37.947 4 345 13.1 101690 56
2008-06-13 12:07 51°17.047 2°37.944 3.6 340 13.2 101690 58
2008-06-13 12:08 51°17.046 2°37.943 3.5 334 13.3 101680 58
2008-06-13 12:09 51°17.045 2°37.94 3.9 329 13.3 101700 57
2008-06-13 12:10 51°17.044 2°37.938 2.8 337 13.4 101700 58
2008-06-13 12:11 51°17.043 2°37.936 3.8 335 13.5 101690 60
2008-06-13 12:12 51°17.042 2°37.935 4.7 340 13.6 101690 60
2008-06-13 12:13 51°17.04 2°37.934 4.1 342 13.4 101690 55
2008-06-13 12:14 51°17.039 2°37.932 3.3 351 13.5 101690 58
2008-06-13 12:15 51°17.037 2°37.931 3.7 350 13.4 101690 55
2008-06-13 12:16 51°17.026 2°37.887 3.5 321 13.3 101690 55
2008-06-13 12:17 51°17.037 2°37.831 5 27 13.5 101680 58
2008-06-13 12:18 51°17.063 2°37.795 4.1 250 13.6 101680 58
2008-06-13 12:19 51°17.093 2°37.763 3.4 244 13.7 101690 57
2008-06-13 12:20 51°17.124 2°37.734 3.3 246 13.8 101680 56
2008-06-13 12:21 51°17.156 2°37.719 5.2 256 14 101670 57
2008-06-13 12:22 51°17.185 2°37.721 3.6 22 14 101690 54
2008-06-13 12:23 51°17.203 2°37.743 1.5 43 13.9 101690 53
2008-06-13 12:24 51°17.211 2°37.786 2.5 33 13.9 101690 53
2008-06-13 12:25 51°17.209 2°37.845 1.8 29 13.9 101680 56
2008-06-13 12:26 51°17.206 2°37.885 4 33 13.9 101690 58
2008-06-13 12:27 51°17.204 2°37.912 3.3 44 13.8 101690 54
2008-06-13 12:28 51°17.2 2°37.933 4.9 35 13.7 101700 55
2008-06-13 12:29 51°17.194 2°37.948 4 34 13.7 101680 54
2008-06-13 12:30 51°17.187 2°37.958 4.1 31 13.6 101680 53
2008-06-13 12:31 51°17.179 2°37.963 3.3 30 13.6 101690 55
2008-06-13 12:32 51°17.171 2°37.964 4.1 27 13.7 101690 55
2008-06-13 12:33 51°17.163 2°37.965 3.8 16 13.7 101690 56
2008-06-13 12:34 51°17.127 2°38.007 4.3 7 13.7 101670 57
2008-06-13 12:35 51°17.037 2°38.196 6 352 13.6 101690 57
2008-06-13 12:36 51°16.914 2°38.44 5.4 347 13.4 101670 57
2008-06-13 12:37 51°16.797 2°38.68 4.6 356 13.4 101680 57
2008-06-13 12:38 51°16.685 2°38.923 3.8 354 13.3 101680 56
2008-06-13 12:39 51°16.56 2°39.162 5.9 355 13.3 101680 56
2008-06-13 12:40 51°16.436 2°39.404 6.4 352 13.3 101680 58
2008-06-13 12:41 51°16.314 2°39.654 5.9 348 13.3 101680 57
2008-06-13 12:42 51°16.195 2°39.902 5.2 346 13.3 101690 57
2008-06-13 12:43 51°16.078 2°40.154 5.1 346 13.3 101690 58
2008-06-13 12:44 51°15.956 2°40.406 5.7 347 13.3 101690 56
2008-06-13 12:45 51°15.833 2°40.656 5.2 348 13.3 101670 56
2008-06-13 12:46 51°15.714 2°40.902 5.5 349 13.3 101690 55
2008-06-13 12:47 51°15.595 2°41.143 4.3 338 13.3 101680 55
2008-06-13 12:48 51°15.476 2°41.385 5.3 354 13.4 101670 58
2008-06-13 12:49 51°15.362 2°41.634 4.9 347 13.3 101680 56
2008-06-13 12:50 51°15.29 2°41.914 4 348 13.4 101680 56
2008-06-13 12:51 51°15.261 2°42.213 3.1 351 13.4 101680 55
2008-06-13 12:52 51°15.247 2°42.518 4.2 347 13.5 101690 57
2008-06-13 12:53 51°15.229 2°42.826 4.2 346 13.5 101690 56
2008-06-13 12:54 51°15.214 2°43.136 3.9 349 13.6 101690 57
2008-06-13 12:55 51°15.201 2°43.446 3.5 343 13.5 101690 55
2008-06-13 12:56 51°15.183 2°43.753 3.1 334 13.5 101690 53
2008-06-13 12:57 51°15.169 2°44.06 3.9 341 13.6 101680 55
2008-06-13 12:58 51°15.15 2°44.364 4 336 13.6 101670 54
2008-06-13 12:59 51°15.131 2°44.667 3.6 341 13.6 101680 53
2008-06-13 13:00 51°15.112 2°44.97 3.9 351 13.6 101690 53
2008-06-13 13:01 51°15.092 2°45.272 2.5 343 13.6 101690 54
2008-06-13 13:02 51°15.072 2°45.572 3 336 13.7 101680 57
2008-06-13 13:03 51°15.05 2°45.873 3.3 334 13.7 101690 57
2008-06-13 13:04 51°15.027 2°46.173 3.6 342 13.7 101680 56
2008-06-13 13:05 51°15.006 2°46.471 3.5 345 13.7 101680 56
2008-06-13 13:06 51°14.985 2°46.769 3.1 328 13.8 101690 56
2008-06-13 13:07 51°14.964 2°47.065 4.2 348 13.9 101670 59
2008-06-13 13:08 51°14.944 2°47.363 4.5 347 13.9 101680 56
2008-06-13 13:09 51°14.924 2°47.662 3.4 340 13.8 101680 54
2008-06-13 13:10 51°14.904 2°47.962 3.6 346 13.8 101670 56
2008-06-13 13:11 51°14.883 2°48.261 3.1 347 13.7 101680 54
2008-06-13 13:12 51°14.861 2°48.56 3 341 13.7 101670 55
2008-06-13 13:13 51°14.841 2°48.86 3.2 344 13.8 101680 54
2008-06-13 13:14 51°14.827 2°49.162 3.1 357 13.8 101670 54
2008-06-13 13:15 51°14.811 2°49.464 2.6 347 13.8 101680 54
2008-06-13 13:16 51°14.795 2°49.767 2.9 339 13.8 101680 52
2008-06-13 13:17 51°14.783 2°50.069 2.8 341 13.9 101680 54
2008-06-13 13:18 51°14.771 2°50.37 2.7 335 13.8 101680 54
2008-06-13 13:19 51°14.753 2°50.67 2.7 337 13.9 101680 53
2008-06-13 13:20 51°14.732 2°50.97 3.1 338 13.9 101670 53
2008-06-13 13:21 51°14.717 2°51.268 3.2 343 13.9 101670 52
2008-06-13 13:22 51°14.701 2°51.567 4.2 348 13.8 101670 53
2008-06-13 13:23 51°14.685 2°51.864 2.3 341 13.8 101670 53
2008-06-13 13:24 51°14.668 2°52.162 3.8 336 13.8 101670 53
2008-06-13 13:25 51°14.652 2°52.461 2.9 327 13.9 101670 52
2008-06-13 13:26 51°14.643 2°52.761 3.2 327 13.9 101670 52
2008-06-13 13:27 51°14.628 2°53.058 3.3 346 14 101670 52
2008-06-13 13:28 51°14.598 2°53.352 3 346 13.9 101670 51
2008-06-13 13:29 51°14.554 2°53.643 2.8 343 13.9 101670 51
2008-06-13 13:30 51°14.508 2°53.937 3.3 339 13.8 101670 53
2008-06-13 13:31 51°14.492 2°54.236 2.1 340 13.8 101670 51
2008-06-13 13:32 51°14.466 2°54.539 3 351 13.8 101670 52
2008-06-13 13:33 51°14.41 2°54.833 3.5 345 13.8 101670 51
2008-06-13 13:34 51°14.328 2°55.118 4.3 344 13.8 101670 52
2008-06-13 13:35 51°14.192 2°55.345 4.1 353 13.8 101660 54